Davenport, IA

12:05 AM CDT on September 22, 2017 (GMT -0500)
Davenport Municipal

Weather History for KDVN - May, 2013

Change the Weather History Date:

Thursday, May 30, 2013

  Actual Average Record
Temperature  
Mean Temperature 73 °F 66 °F  
Max Temperature 83 °F 77 °F 91 °F (1979)
Min Temperature 63 °F 55 °F 42 °F (2005)
Degree Days  
Heating Degree Days 0 3  
Month to date heating degree days 159 181  
Since 1 July heating degree days 6543 6485  
Cooling Degree Days 8 3  
Month to date cooling degree days 81 52  
Year to date cooling degree days 91 58  
Growing Degree Days 22 (Base 50)    
Moisture  
Dew Point 65 °F    
Average Humidity 78    
Maximum Humidity 93    
Minimum Humidity 63    
Precipitation  
Precipitation 0.70 in 0.14 in 2.38 in (2004)
Month to date precipitation 8.50 4.12  
Year to date precipitation 20.95 12.68  
Snow  
Snow 0.00 in - - ()
Month to date snowfall T  
Since 1 July snowfall 27.1  
Snow Depth 0.00 in    
Sea Level Pressure  
Sea Level Pressure 29.76 in    
Wind  
Wind Speed 19 mph (South)    
Max Wind Speed 43 mph    
Max Gust Speed 54 mph    
Visibility 7 miles    
Events Rain , Thunderstorm    
T = Trace of Precipitation, MM = Missing Value Source: NWS Daily Summary

Daily Weather History Graph

Daily Weather History Graph

Search for Another Location

Airport or City:

Trip Planner

Search our weather history database for the weather conditions in past years. The results will help you decide how hot, cold, wet, or windy it might be!

Date:

Astronomy

May. 30, 2013 Rise Set
Actual Time 5:31 AM CDT 8:28 PM CDT
Civil Twilight 4:58 AM CDT 9:02 PM CDT
Nautical Twilight 4:16 AM CDT 9:44 PM CDT
Astronomical Twilight 3:27 AM CDT 10:33 PM CDT
Moon 12:27 AM CDT (5/30) 11:43 AM CDT (5/30)
Length of Visible Light 16h 03m
Length of Day
14h 57m
Waning Gibbous, 62% of the Moon is Illuminated
May 30
Waning Gibbous
May 31
Last Quarter
Jun 8
New
Jun 16
First Quarter
Jun 23
Full

Hourly Weather History & Observations

Time (CDT) Temp. Heat Index Dew Point Humidity Pressure Visibility Wind Dir Wind Speed Gust Speed Precip Events Conditions
12:52 AM 73.0 °F - 63.0 °F 71% 29.81 in 10.0 mi SSE 11.5 mph - N/A   Clear
1:52 AM 71.1 °F - 63.0 °F 75% 29.80 in 10.0 mi SSE 12.7 mph - N/A   Clear
2:52 AM 70.0 °F - 63.0 °F 78% 29.80 in 10.0 mi SSE 13.8 mph - N/A   Clear
3:52 AM 71.1 °F - 63.0 °F 75% 29.79 in 10.0 mi SSE 12.7 mph - N/A   Clear
4:52 AM 69.1 °F - 63.0 °F 81% 29.79 in 10.0 mi SSE 16.1 mph - N/A   Clear
5:52 AM 71.1 °F - 63.0 °F 75% 29.79 in 10.0 mi South 17.3 mph - N/A   Clear
6:52 AM 72.0 °F - 64.0 °F 76% 29.79 in 10.0 mi South 20.7 mph 26.5 mph N/A   Partly Cloudy
7:52 AM 73.9 °F - 66.0 °F 76% 29.78 in 9.0 mi South 20.7 mph 35.7 mph N/A   Clear
8:52 AM 75.9 °F - 66.9 °F 74% 29.78 in 9.0 mi South 23.0 mph 33.4 mph N/A   Clear
9:52 AM 77.0 °F - 66.0 °F 69% 29.78 in 9.0 mi South 24.2 mph 33.4 mph N/A   Mostly Cloudy
10:52 AM 78.1 °F - 66.9 °F 68% 29.78 in 9.0 mi South 28.8 mph 40.3 mph N/A   Scattered Clouds
11:52 AM 78.1 °F - 68.0 °F 71% 29.78 in 8.0 mi South 21.9 mph 27.6 mph N/A   Mostly Cloudy
12:52 PM 81.0 °F 84.1 °F 69.1 °F 67% 29.77 in 10.0 mi South 25.3 mph 29.9 mph N/A   Partly Cloudy
1:52 PM 82.9 °F 85.8 °F 68.0 °F 60% 29.73 in 10.0 mi South 25.3 mph 35.7 mph N/A   Partly Cloudy
2:16 PM 80.6 °F 82.7 °F 66.2 °F 61% 29.75 in 9.0 mi South 25.3 mph 32.2 mph 0.00 in Rain , Thunderstorm Light Thunderstorms and Rain
2:22 PM 75.2 °F - 68.0 °F 78% 29.76 in 0.8 mi South 33.4 mph 46.0 mph 0.10 in Rain , Thunderstorm Heavy Thunderstorms and Rain
2:29 PM 71.6 °F - 66.2 °F 83% 29.75 in 0.2 mi South 19.6 mph 46.0 mph 0.27 in Rain , Thunderstorm Heavy Thunderstorms and Rain
2:36 PM 71.6 °F - 66.2 °F 83% 29.75 in 0.8 mi SSW 16.1 mph 33.4 mph 0.30 in Rain , Thunderstorm Thunderstorms and Rain
2:41 PM 71.6 °F - 66.2 °F 83% 29.77 in 1.2 mi SSW 25.3 mph 34.5 mph 0.36 in Rain , Thunderstorm Heavy Thunderstorms and Rain
2:48 PM 71.6 °F - 68.0 °F 88% 29.75 in 1.5 mi South 16.1 mph 35.7 mph 0.40 in Rain , Thunderstorm Light Thunderstorms and Rain
2:52 PM 72.0 °F - 68.0 °F 87% 29.73 in 2.5 mi South 12.7 mph - 0.40 in Rain , Thunderstorm Light Thunderstorms and Rain
2:59 PM 71.6 °F - 69.8 °F 94% 29.75 in 8.0 mi SSE 10.4 mph - 0.00 in Thunderstorm Thunderstorm
3:27 PM 71.6 °F - 68.0 °F 88% 29.75 in 1.8 mi South 17.3 mph 24.2 mph 0.04 in Rain , Thunderstorm Thunderstorms and Rain
3:39 PM 71.6 °F - 68.0 °F 88% 29.74 in 4.0 mi South 18.4 mph 28.8 mph 0.09 in Rain , Thunderstorm Light Thunderstorms and Rain
3:52 PM 75.0 °F - 69.1 °F 82% 29.70 in 10.0 mi SSE 15.0 mph - 0.09 in Thunderstorm Thunderstorm
4:13 PM 77.0 °F - 69.8 °F 78% 29.69 in 10.0 mi SSE 15.0 mph - N/A   Clear
4:52 PM 79.0 °F - 66.9 °F 66% 29.68 in 10.0 mi South 33.4 mph 39.1 mph N/A   Scattered Clouds
5:00 PM 73.4 °F - 64.4 °F 73% 29.74 in 4.0 mi WSW 39.1 mph 54.1 mph 0.01 in Rain , Thunderstorm Light Rain
5:03 PM 68.0 °F - 60.8 °F 78% 29.74 in 1.2 mi WSW 38.0 mph 54.1 mph 0.06 in Rain , Thunderstorm Rain
5:11 PM 64.4 °F - 60.8 °F 88% 29.77 in 0.8 mi SSW 27.6 mph 46.0 mph 0.11 in Rain , Thunderstorm Thunderstorms and Rain
5:16 PM 64.4 °F - 60.8 °F 88% 29.76 in 2.0 mi SSW 23.0 mph 36.8 mph 0.13 in Rain , Thunderstorm Thunderstorms and Rain
5:32 PM 64.4 °F - 60.8 °F 88% 29.73 in 9.0 mi SW 15.0 mph - 0.15 in Rain , Thunderstorm Light Thunderstorms and Rain
5:49 PM 64.4 °F - 60.8 °F 88% 29.74 in 10.0 mi SW 15.0 mph - 0.15 in   Mostly Cloudy
5:52 PM 64.0 °F - 61.0 °F 90% 29.73 in 10.0 mi SW 16.1 mph - 0.15 in   Scattered Clouds
6:52 PM 64.0 °F - 60.1 °F 87% 29.74 in 10.0 mi SSE 15.0 mph - 0.02 in Rain Light Rain
7:52 PM 64.0 °F - 60.1 °F 87% 29.76 in 10.0 mi SSE 18.4 mph - 0.00 in Rain Light Rain
8:52 PM 64.0 °F - 60.1 °F 87% 29.74 in 7.0 mi SSE 21.9 mph - 0.02 in Rain Light Rain
9:52 PM 63.0 °F - 60.1 °F 90% 29.77 in 10.0 mi SSE 13.8 mph - 0.02 in   Partly Cloudy
10:52 PM 63.0 °F - 60.1 °F 90% 29.77 in 10.0 mi SE 18.4 mph - N/A   Clear
11:52 PM 63.0 °F - 60.1 °F 90% 29.78 in 10.0 mi SSE 16.1 mph - N/A   Partly Cloudy